RH
82 82 84 84 84 84 83 84 84 84 83 84 83 83 85 74 58 75 82 81 71 72 72 72 74 72 74 79 78 76 74 74 74
79 79 79 80 80 81 82 81 81 82 81 83 82 83 87 60 69 77 87 80 72 69 71 73 72 74 73 74 78 78 76 74 70
77 76 75 75 74 73 71 70 69 68 68 67 68 78 88 71 80 85 83 84 72 72 71 72 72 72 74 70 71 75 74 72 70
70 70 69 69 68 66 64 59 58 57 55 54 62 75 84 87 76 63 73 83 75 75 74 72 71 72 73 73 70 72 72 72 69
61 59 61 61 60 58 56 54 48 48 49 48 49 60 65 62 62 71 76 77 76 75 78 75 73 73 74 73 73 72 71 69 70
40 47 48 48 50 50 48 45 42 37 38 42 41 42 26 40 69 78 81 76 76 76 76 80 78 78 76 75 75 74 72 72 71
34 41 39 38 38 39 38 38 34 26 16 18 27 21 26 34 78 76 82 83 84 83 84 83 80 81 80 80 76 74 74 73 75
36 37 31 25 33 21 22 19 18 13 14 17 19 23 35 51 68 70 76 77 82 84 83 82 85 82 82 82 82 82 76 73 77
34 35 40 32 28 23 23 18 15 14 11 12 14 21 39 55 58 64 68 70 75 77 77 80 83 82 83 83 84 84 83 80 80
41 37 39 38 36 33 30 23 21 19 18 15 15 21 37 42 48 52 54 57 64 71 71 74 81 82 81 83 84 84 86 86 85
46 43 42 40 40 39 36 30 29 25 24 20 19 25 35 32 38 40 38 44 49 59 61 67 71 77 81 82 83 84 85 85 85
52 52 51 45 42 42 41 37 36 34 30 25 24 30 32 29 30 34 29 36 39 47 51 55 62 68 79 80 82 82 83 83 84
54 58 55 51 48 48 47 48 45 44 40 37 33 42 31 28 28 27 26 32 27 36 42 44 50 59 68 75 76 74 75 79 82
51 56 56 54 54 51 48 52 52 50 48 35 33 48 39 37 26 26 26 29 30 30 34 41 42 46 55 66 69 66 68 69 77
49 48 50 51 55 53 51 51 51 53 54 34 31 45 39 38 42 31 27 29 30 31 27 38 32 42 47 56 64 63 62 63 67
49 52 47 48 49 48 42 53 52 58 50 53 50 42 38 29 35 37 35 32 30 29 30 32 35 36 42 52 56 61 60 61 61
41 51 52 48 50 47 47 51 58 56 57 58 59 42 45 40 31 38 28 32 34 32 28 27 30 37 43 45 47 57 59 60 60
46 46 48 50 52 55 47 50 51 53 53 51 59 49 44 49 39 33 37 31 35 37 37 29 31 32 41 48 48 50 56 58 59
45 47 45 45 51 49 46 41 48 49 53 53 41 54 53 58 54 43 40 35 30 33 38 35 34 32 41 42 39 47 52 55 58
46 47 47 45 52 47 47 48 47 49 50 54 54 55 56 54 61 58 47 40 39 37 37 35 38 34 35 45 42 45 50 53 54
Wind_Speed
23 23 23 23 23 23 22 21 21 19 18 18 17 16 17 7 14 12 14 8 15 15 13 10 10 10 10 11 11 12 12 13 12
22 22 23 22 22 21 21 20 19 19 17 17 18 18 17 7 15 13 12 9 16 16 14 11 8 7 9 10 10 9 10 10 9
23 22 22 22 21 21 20 20 20 20 20 19 18 16 14 14 14 13 10 15 16 16 14 13 10 8 6 6 6 6 6 6 7
23 23 22 22 21 21 20 19 20 21 22 23 21 15 13 14 10 12 9 18 16 16 15 12 12 10 9 4 4 3 3 3 2
23 21 22 22 22 22 23 21 19 20 22 23 24 20 15 13 11 9 9 17 17 17 17 14 10 11 10 7 5 1 1 1 1
13 19 21 21 21 22 22 22 22 19 20 22 22 18 9 10 8 8 17 15 15 15 16 17 15 13 10 8 7 6 3 2 2
10 13 19 20 19 20 20 21 20 15 8 7 14 7 9 8 9 8 23 25 25 24 24 24 22 21 18 16 11 9 6 7 5
5 5 7 8 14 8 9 8 7 8 6 6 7 8 8 5 7 14 22 23 23 23 24 23 26 22 21 20 20 13 9 8 7
5 5 6 6 6 8 8 7 9 10 9 6 7 8 6 4 6 12 22 24 23 22 22 20 22 21 21 23 23 21 17 14 11
5 5 5 5 5 5 6 7 7 8 8 7 8 6 7 7 5 4 19 22 23 23 24 22 22 21 20 22 21 21 23 22 20
5 5 5 5 5 5 6 6 6 7 6 7 7 7 7 7 8 7 8 19 21 22 22 23 23 22 21 22 22 22 25 25 24
6 5 5 5 5 7 6 6 6 6 7 6 6 6 7 6 8 8 7 7 18 20 21 21 22 22 21 22 24 24 24 25 24
6 5 5 5 5 5 5 5 5 5 6 4 5 5 6 7 8 8 8 6 7 11 19 19 20 20 21 21 23 24 23 23 23
6 5 5 6 5 5 5 5 5 6 7 6 5 4 5 5 6 7 8 8 7 6 16 18 18 18 19 19 23 22 23 22 21
6 5 6 5 5 6 5 6 5 5 5 6 5 2 5 5 5 5 6 6 6 5 7 5 8 18 17 17 20 22 23 22 21
6 5 6 5 5 6 7 5 5 5 7 4 6 2 5 6 4 5 5 5 5 6 5 4 4 5 17 16 17 21 22 22 21
7 6 5 6 5 6 6 6 4 3 5 3 2 4 4 5 2 3 5 6 4 5 6 6 6 4 4 10 15 19 22 22 21
6 6 5 5 5 4 5 5 6 4 4 6 3 4 2 4 3 4 4 5 4 5 4 6 5 5 5 6 8 17 20 21 20
6 6 6 5 4 5 4 5 3 4 4 3 4 1 1 2 4 4 5 4 5 6 3 4 5 4 4 8 10 15 18 19 19
5 5 5 5 4 4 4 4 4 2 2 2 2 3 2 4 4 4 4 4 4 4 3 4 4 3 4 3 7 14 16 17 18
Wind_Direction
64 58 54 53 55 53 56 54 56 52 45 35 28 19 357 25 64 62 43 27 51 48 45 52 66 69 65 52 64 105 101 96 87
67 64 61 56 56 56 56 54 51 47 42 35 24 16 2 45 62 55 39 21 37 45 42 35 42 65 69 60 67 86 86 87 85
70 66 64 63 60 59 57 58 52 45 42 33 21 9 10 44 54 40 25 11 37 37 40 37 36 35 53 64 63 72 81 87 87
67 65 63 61 59 58 56 51 53 46 39 29 17 11 55 63 51 36 18 10 32 35 32 33 33 34 23 28 52 72 72 72 61
65 60 59 59 57 55 54 48 46 46 39 32 24 20 48 69 52 34 17 20 22 32 33 29 25 24 24 17 356 325 66 18 341
62 63 62 58 55 53 51 49 46 44 39 35 30 30 25 55 45 28 19 24 33 35 35 34 31 27 20 14 5 337 303 263 293
60 52 51 52 51 50 50 47 45 42 38 30 33 29 26 36 50 34 32 34 42 43 40 39 40 37 36 29 8 360 333 297 268
51 40 36 32 34 31 33 38 40 44 46 51 48 42 34 38 58 39 37 34 34 40 38 34 37 37 37 38 29 17 357 344 304
49 50 34 37 28 25 25 28 32 25 25 41 57 59 51 47 70 50 45 43 39 40 36 32 36 35 37 37 35 32 32 20 5
52 44 41 34 28 28 22 30 30 20 13 19 32 33 58 48 71 64 48 44 40 40 35 36 35 33 37 38 38 34 33 35 29
51 48 44 35 25 30 25 33 26 20 13 17 21 26 35 37 57 59 36 38 38 36 36 35 35 32 32 40 39 41 38 36 32
58 53 42 36 25 30 34 27 27 24 3 16 33 25 34 33 54 62 47 32 36 32 31 34 34 31 32 36 38 35 34 31 30
58 51 46 38 30 26 39 27 27 19 6 349 15 47 40 30 46 61 49 37 36 25 31 31 32 32 26 35 33 28 28 27 25
69 60 49 46 41 31 26 22 50 20 1 344 11 63 57 56 59 60 54 39 40 25 25 27 25 26 29 28 28 24 22 21 23
65 56 55 51 46 33 21 25 24 37 354 337 344 79 81 59 71 65 67 46 37 34 26 14 12 19 28 25 28 21 16 16 17
62 57 45 48 55 49 34 11 16 19 4 7 345 17 127 58 55 66 73 57 26 28 33 11 19 10 20 12 26 16 12 12 10
73 70 60 49 59 49 43 34 13 18 31 23 284 4 342 13 27 68 54 60 37 30 31 6 9 15 24 17 18 12 7 4 4
74 66 69 58 60 59 52 39 38 16 2 50 79 359 352 327 332 47 34 33 32 23 19 12 349 358 24 14 30 8 2 358 358
82 80 77 69 65 59 34 43 34 38 15 356 30 28 208 331 319 331 352 19 12 7 354 2 323 355 16 353 13 3 355 353 353
84 85 83 77 68 64 59 37 22 14 43 21 349 351 313 259 246 282 304 354 355 328 337 329 309 340 356 324 8 352 344 343 343